DW2144 Weather Reports


Display with metric or nautical units.
time (UTC)temp
F
wind
direction
speed
MPH
gust
MPH
rain 1hr
in
rain 24hr
in
rain mn
in
humidity
%
barometer
mb
20260508151513 52 327 0.0 0.0 0.00 0.00 0.00 87 1017.2
20260508150013 52 327 0.0 0.0 0.00 0.00 0.00 86 1017.2
20260508144513 51 327 0.0 0.0 0.00 0.00 0.00 86 1017.4
20260508143013 51 327 0.0 0.0 0.00 0.00 0.00 86 1017.1
20260508141510 50 327 0.0 0.0 0.00 0.00 0.00 87 1017.1
20260508140009 50 327 0.0 0.0 0.00 0.00 0.00 87 1017.0
20260508134511 50 327 0.0 0.0 0.00 0.00 0.00 87 1016.8
20260508133005 51 327 0.0 0.0 0.00 0.00 0.00 87 1016.7
20260508131502 52 327 0.0 0.0 0.00 0.00 0.00 87 1016.7
20260508130100 52 327 0.0 0.0 0.00 0.00 0.00 87 1016.7
20260508124558 53 327 0.0 0.0 0.00 0.00 0.00 87 1016.6
20260508123058 53 327 0.0 1.0 0.00 0.00 0.00 87 1016.4
20260508121557 53 327 0.0 0.0 0.00 0.00 0.00 87 1016.5
20260508120112 53 327 0.0 0.0 0.00 0.00 0.00 87 1016.5
20260508114603 53 327 0.0 0.0 0.00 0.00 0.00 87 1016.5
20260508113102 53 327 0.0 0.0 0.00 0.00 0.00 87 1016.7
20260508111554 53 327 0.0 0.0 0.00 0.00 0.00 87 1016.6
20260508110103 53 327 0.0 0.0 0.00 0.00 0.00 86 1016.8
20260508104553 53 327 0.0 0.0 0.00 0.00 0.00 87 1016.8
20260508103057 53 327 0.0 0.0 0.00 0.00 0.00 87 1016.8
20260508101554 53 327 0.0 0.0 0.00 0.00 0.00 87 1016.6
20260508100111 53 327 0.0 0.0 0.00 0.00 0.00 87 1016.7
20260508094551 53 327 0.0 0.0 0.00 0.00 0.00 87 1016.7
20260508093049 53 327 0.0 0.0 0.00 0.00 0.00 87 1016.5
20260508091606 53 327 0.0 0.0 0.00 0.00 0.00 87 1016.3
20260508090050 53 327 0.0 0.0 0.00 0.00 0.00 87 1016.3
20260508084546 53 327 0.0 0.0 0.00 0.00 0.00 87 1016.4
20260508083046 53 327 0.0 0.0 0.00 0.00 0.00 87 1016.4
20260508081606 53 327 0.0 0.0 0.00 0.00 0.00 87 1016.5
20260508080044 53 327 0.0 0.0 0.00 0.00 0.00 87 1016.4
20260508074643 53 327 0.0 0.0 0.00 0.00 0.00 87 1016.5
20260508073047 53 327 0.0 0.0 0.00 0.00 0.00 87 1016.5
20260508071541 53 327 0.0 1.0 0.00 0.00 0.00 87 1016.6
20260508070039 54 327 0.0 1.0 0.00 0.00 0.00 87 1016.4
20260508064540 54 327 0.0 0.0 0.00 0.00 0.00 87 1016.5
20260508063039 54 327 0.0 0.0 0.00 0.00 0.00 87 1016.5
20260508061538 54 327 0.0 0.0 0.00 0.00 0.00 87 1016.4
20260508060053 53 327 0.0 0.0 0.00 0.00 0.00 86 1016.4
20260508054610 53 327 0.0 0.0 0.00 0.00 0.00 86 1016.3
20260508053047 54 327 0.0 0.0 0.00 0.00 0.00 85 1016.2
20260508051536 55 327 0.0 0.0 0.00 0.00 0.00 85 1016.1
20260508050035 56 327 0.0 0.0 0.00 0.00 0.00 84 1016.1
20260508044535 56 327 0.0 0.0 0.00 0.00 0.00 83 1016.1
20260508043037 57 327 0.0 0.0 0.00 0.00 0.00 83 1016.0
20260508041534 58 327 0.0 0.0 0.00 0.00 0.00 82 1015.7
20260508040034 59 327 0.0 0.0 0.00 0.00 0.00 82 1015.4
20260508034538 59 327 0.0 0.0 0.00 0.00 0.00 81 1015.2
20260508033035 60 327 0.0 1.0 0.00 0.00 0.00 79 1015.1
20260508031534 61 327 0.0 1.0 0.00 0.00 0.00 78 1015.0
20260508030032 63 327 0.0 2.0 0.00 0.00 0.00 77 1014.6
20260508024535 64 327 0.0 0.0 0.00 0.00 0.00 75 1014.6
20260508023032 65 327 0.0 2.0 0.00 0.00 0.00 74 1014.3
20260508021530 65 327 0.0 1.0 0.00 0.00 0.00 73 1014.3
20260508020031 66 327 0.0 1.0 0.00 0.00 0.00 73 1014.4
20260508014536 67 327 0.0 3.0 0.00 0.00 0.00 71 1014.4
20260508013028 68 328 0.0 3.0 0.00 0.00 0.00 70 1014.4
20260508011528 68 328 0.0 3.0 0.00 0.00 0.00 70 1014.4
20260508010041 69 329 0.0 3.0 0.00 0.00 0.00 70 1014.5
20260508004531 70 316 0.0 5.0 0.00 0.00 0.00 68 1014.6
20260508003027 70 323 0.0 4.0 0.00 0.00 0.00 68 1014.6
20260508001525 71 338 0.0 6.0 0.00 0.00 0.00 67 1014.5
20260508000024 72 346 0.0 4.0 0.00 0.00 0.00 67 1014.4
20260507234524 72 326 0.0 8.0 0.00 0.00 0.00 68 1014.4
20260507233022 73 329 0.0 3.0 0.00 0.00 0.00 69 1014.6
20260507231522 73 17 0.0 5.0 0.00 0.00 0.00 68 1014.7
20260507230025 73 10 0.0 3.0 0.00 0.00 0.00 69 1014.8
20260507224517 73 5 0.0 0.0 0.00 0.00 0.00 68 1015.0
20260507223015 73 9 0.0 1.0 0.00 0.00 0.00 69 1015.2
20260507221512 73 328 0.0 1.0 0.00 0.00 0.00 70 1015.4
20260507220011 72 327 0.0 2.0 0.00 0.00 0.00 70 1015.5
20260507214513 72 330 0.0 3.0 0.00 0.00 0.00 69 1015.7
20260507213006 72 333 0.0 1.0 0.00 0.00 0.00 69 1016.1
20260507211504 72 329 0.0 2.0 0.00 0.00 0.00 71 1016.3
20260507210105 71 355 0.0 3.0 0.00 0.00 0.00 71 1016.2
20260507204559 69 360 0.0 2.0 0.00 0.00 0.00 74 1016.7
20260507203057 68 360 0.0 4.0 0.00 0.00 0.00 76 1016.8
20260507201548 67 335 0.0 3.0 0.00 0.00 0.00 76 1017.0
20260507200049 67 327 0.0 2.0 0.00 0.00 0.00 78 1017.1
20260507194547 66 327 0.0 3.0 0.00 0.00 0.00 78 1017.2
20260507193040 65 331 0.0 2.0 0.00 0.00 0.00 81 1017.4
20260507191536 64 329 0.0 3.0 0.00 0.00 0.00 82 1017.5
20260507190033 62 317 0.0 4.0 0.00 0.00 0.00 84 1017.7
20260507184528 60 282 0.0 0.0 0.00 0.00 0.00 85 1017.8
20260507183039 59 282 0.0 1.0 0.00 0.00 0.00 86 1017.9
20260507181521 58 282 0.0 1.0 0.00 0.00 0.00 87 1017.9
20260507180020 58 282 0.0 1.0 0.00 0.00 0.00 87 1018.0
20260507174518 57 282 0.0 1.0 0.00 0.00 0.00 87 1018.0
20260507173014 56 282 0.0 0.0 0.00 0.00 0.00 86 1018.0
20260507171512 55 282 0.0 0.0 0.00 0.00 0.00 87 1018.1
20260507170010 55 282 0.0 0.0 0.00 0.00 0.00 86 1018.2
20260507164508 54 282 0.0 0.0 0.00 0.00 0.00 86 1018.1
20260507163006 54 282 0.0 0.0 0.00 0.00 0.00 86 1018.2
20260507161506 54 282 0.0 0.0 0.00 0.00 0.00 85 1018.2
20260507160012 53 282 0.0 0.0 0.00 0.00 0.00 86 1018.3
20260507154503 53 282 0.0 0.0 0.00 0.00 0.00 86 1018.1
20260507153004 53 282 0.0 0.0 0.00 0.00 0.00 85 1018.2